Winchester, TN

4:35 AM CDT on July 27, 2017 (GMT -0500)
Winchester Municipal

Weather History for KBGF - February, 2014

Change the Weather History Date:

Tuesday, February 25, 2014

  Actual Average (KTHA) Record (KTHA)
Temperature  
Mean Temperature 40 °F -  
Max Temperature 51 °F 55 °F 59 °F (2013)
Min Temperature 30 °F 30 °F 15 °F (2015)
Degree Days  
Heating Degree Days 24    
Moisture  
Dew Point 24 °F    
Average Humidity 54    
Maximum Humidity 81    
Minimum Humidity 33    
Precipitation  
Precipitation 0.00 in - - ()
Sea Level Pressure  
Sea Level Pressure 30.08 in    
Wind  
Wind Speed 3 mph (North)    
Max Wind Speed 12 mph    
Max Gust Speed -    
Visibility 10 miles    
Events      
Averages and records for this station are not official NWS values.
T = Trace of Precipitation, MM = Missing Value Source: NWS Daily Summary

Daily Weather History Graph

Daily Weather History Graph

Search for Another Location

Airport or City:

Trip Planner

Search our weather history database for the weather conditions in past years. The results will help you decide how hot, cold, wet, or windy it might be!

Date:

Astronomy

Feb. 25, 2014 Rise Set
Actual Time 7:18 AM EST 6:36 PM EST
Civil Twilight 6:53 AM EST 7:01 PM EST
Nautical Twilight 6:23 AM EST 7:31 PM EST
Astronomical Twilight 5:54 AM EST 8:00 PM EST
Moon 4:06 AM EST (2/25) 2:47 PM EST (2/25)
Length of Visible Light 12h 08m
Length of Day
11h 17m
Waning Crescent, 18% of the Moon is Illuminated
Feb 25
Waning Crescent
Mar 1
New
Mar 8
First Quarter
Mar 16
Full
Mar 23
Last Quarter

Hourly Weather History & Observations

Time (EST) Temp. Windchill Dew Point Humidity Pressure Visibility Wind Dir Wind Speed Gust Speed Precip Events Conditions
12:15 AM 30.2 °F - 24.8 °F 80% 30.11 in 10.0 mi Calm Calm - N/A   Partly Cloudy
12:35 AM 30.2 °F 25.4 °F 24.8 °F 80% 30.13 in 10.0 mi WNW 4.6 mph - N/A   Clear
12:55 AM 30.2 °F - 24.8 °F 80% 30.13 in 10.0 mi Calm Calm - N/A   Scattered Clouds
1:55 AM 32.0 °F 28.7 °F 24.8 °F 75% 30.08 in 10.0 mi East 3.5 mph - N/A   Overcast
2:15 AM 33.8 °F - 24.8 °F 70% 30.06 in 10.0 mi Calm Calm - N/A   Overcast
2:35 AM 35.6 °F 32.8 °F 24.8 °F 65% 30.07 in 10.0 mi WNW 3.5 mph - N/A   Overcast
2:55 AM 35.6 °F - 26.6 °F 70% 30.06 in 10.0 mi Calm Calm - N/A   Overcast
3:15 AM 35.6 °F - 26.6 °F 70% 30.06 in 10.0 mi Calm Calm - N/A   Overcast
3:35 AM 35.6 °F 31.7 °F 26.6 °F 70% 30.07 in 10.0 mi NW 4.6 mph - N/A   Overcast
3:55 AM 35.6 °F 30.7 °F 26.6 °F 70% 30.09 in 10.0 mi NNW 5.8 mph - N/A   Overcast
4:15 AM 35.6 °F 32.8 °F 21.2 °F 56% 30.10 in 10.0 mi NNW 3.5 mph - N/A   Overcast
4:35 AM 35.6 °F 32.8 °F 23.0 °F 60% 30.11 in 10.0 mi NW 3.5 mph - N/A   Overcast
4:55 AM 35.6 °F - 26.6 °F 70% 30.10 in 7.0 mi Calm Calm - N/A   Overcast
5:15 AM 35.6 °F - 28.4 °F 75% 30.10 in 10.0 mi Calm Calm - N/A   Overcast
5:35 AM 35.6 °F 32.8 °F 30.2 °F 81% 30.11 in 10.0 mi SW 3.5 mph - N/A   Overcast
5:55 AM 35.6 °F - 28.4 °F 75% 30.12 in 10.0 mi Calm Calm - N/A   Overcast
6:15 AM 35.6 °F - 28.4 °F 75% 30.12 in 10.0 mi Calm Calm - N/A   Overcast
6:35 AM 35.6 °F 32.8 °F 28.4 °F 75% 30.12 in 10.0 mi NW 3.5 mph - N/A   Overcast
6:55 AM 35.6 °F - 28.4 °F 75% 30.11 in 10.0 mi Calm Calm - N/A   Overcast
7:15 AM 37.4 °F - 28.4 °F 70% 30.11 in 10.0 mi Calm Calm - N/A   Overcast
7:35 AM 37.4 °F - 28.4 °F 70% 30.11 in 10.0 mi Calm Calm - N/A   Overcast
7:55 AM 35.6 °F - 30.2 °F 81% 30.12 in 10.0 mi Calm Calm - N/A   Overcast
8:15 AM 35.6 °F 32.8 °F 28.4 °F 75% 30.13 in 10.0 mi North 3.5 mph - N/A   Overcast
8:35 AM 37.4 °F 34.9 °F 26.6 °F 65% 30.13 in 10.0 mi North 3.5 mph - N/A   Overcast
8:55 AM 37.4 °F 34.9 °F 26.6 °F 65% 30.14 in 10.0 mi NNE 3.5 mph - N/A   Overcast
9:15 AM 37.4 °F - 24.8 °F 60% 30.14 in 10.0 mi Calm Calm - N/A   Overcast
9:35 AM 37.4 °F - 24.8 °F 60% 30.14 in 10.0 mi Calm Calm - N/A   Overcast
9:55 AM 39.2 °F 35.9 °F 26.6 °F 61% 30.14 in 10.0 mi North 4.6 mph - N/A   Overcast
10:15 AM 41.0 °F 38.0 °F 26.6 °F 57% 30.14 in 9.0 mi WNW 4.6 mph - N/A   Mostly Cloudy
10:35 AM 42.8 °F - 24.8 °F 49% 30.14 in 10.0 mi Calm Calm - N/A   Overcast
10:55 AM 42.8 °F 41.1 °F 24.8 °F 49% 30.13 in 10.0 mi Variable 3.5 mph - N/A   Overcast
11:15 AM 44.6 °F 41.4 °F 24.8 °F 46% 30.14 in 10.0 mi NNE 5.8 mph - N/A   Mostly Cloudy
11:35 AM 46.4 °F 41.9 °F 24.8 °F 43% 30.14 in 10.0 mi North 9.2 mph - N/A   Mostly Cloudy
11:55 AM 46.4 °F 42.9 °F 24.8 °F 43% 30.13 in 10.0 mi Variable 6.9 mph - N/A   Partly Cloudy
12:15 PM 48.2 °F - 24.8 °F 40% 30.13 in 10.0 mi North 9.2 mph - N/A   Clear
12:35 PM 48.2 °F - 23.0 °F 37% 30.12 in 10.0 mi North 6.9 mph - N/A   Clear
12:55 PM 48.2 °F - 23.0 °F 37% 30.12 in 10.0 mi North 9.2 mph - N/A   Clear
1:15 PM 50.0 °F - 23.0 °F 35% 30.10 in 10.0 mi North 6.9 mph - N/A   Clear
1:35 PM 50.0 °F - 23.0 °F 35% 30.09 in 10.0 mi North 8.1 mph - N/A   Clear
1:55 PM 51.8 °F - 23.0 °F 33% 30.08 in 10.0 mi NE 8.1 mph - N/A   Clear
2:15 PM 51.8 °F - 23.0 °F 33% 30.07 in 10.0 mi Variable 4.6 mph - N/A   Clear
2:35 PM 51.8 °F - 23.0 °F 33% 30.05 in 10.0 mi Variable 4.6 mph - N/A   Clear
2:55 PM 51.8 °F - 24.8 °F 35% 30.04 in 10.0 mi North 8.1 mph - N/A   Clear
3:15 PM 51.8 °F - 23.0 °F 33% 30.04 in 10.0 mi NNE 4.6 mph - N/A   Clear
3:35 PM 51.8 °F - 23.0 °F 33% 30.02 in 10.0 mi Variable 3.5 mph - N/A   Clear
3:55 PM 51.8 °F - 23.0 °F 33% 30.02 in 10.0 mi Variable 5.8 mph - N/A   Clear
4:15 PM 51.8 °F - 23.0 °F 33% 30.01 in 10.0 mi North 5.8 mph - N/A   Clear
4:35 PM 51.8 °F - 23.0 °F 33% 30.01 in 10.0 mi Variable 3.5 mph - N/A   Clear
4:55 PM 51.8 °F - 23.0 °F 33% 30.01 in 10.0 mi North 5.8 mph - N/A   Clear
5:15 PM 51.8 °F - 23.0 °F 33% 30.01 in 10.0 mi NNE 5.8 mph - N/A   Clear
5:35 PM 51.8 °F - 23.0 °F 33% 30.01 in 10.0 mi Variable 5.8 mph - N/A   Clear
5:55 PM 50.0 °F - 23.0 °F 35% 30.02 in 10.0 mi North 8.1 mph - N/A   Clear
6:15 PM 48.2 °F - 23.0 °F 37% 30.03 in 10.0 mi North 9.2 mph - N/A   Clear
6:35 PM 44.6 °F 38.8 °F 21.2 °F 39% 30.04 in 10.0 mi North 11.5 mph - N/A   Clear
6:55 PM 42.8 °F 38.6 °F 21.2 °F 42% 30.05 in 10.0 mi North 6.9 mph - N/A   Clear
7:15 PM 42.8 °F 37.5 °F 21.2 °F 42% 30.06 in 10.0 mi North 9.2 mph - N/A   Clear
7:35 PM 41.0 °F 35.2 °F 21.2 °F 45% 30.06 in 10.0 mi North 9.2 mph - N/A   Clear
7:55 PM 39.2 °F 33.0 °F 19.4 °F 45% 30.07 in 10.0 mi North 9.2 mph - N/A   Clear
8:15 PM 39.2 °F 35.0 °F 19.4 °F 45% 30.08 in 10.0 mi North 5.8 mph - N/A   Clear
8:35 PM 39.2 °F 37.0 °F 19.4 °F 45% 30.08 in 10.0 mi NNE 3.5 mph - N/A   Clear
8:55 PM 37.4 °F - 19.4 °F 48% 30.07 in 10.0 mi Calm Calm - N/A   Clear
9:15 PM 35.6 °F - 21.2 °F 56% 30.06 in 10.0 mi Calm Calm - N/A   Clear
9:35 PM 35.6 °F - 21.2 °F 56% 30.05 in 10.0 mi Calm Calm - N/A   Clear
9:55 PM 33.8 °F 30.8 °F 23.0 °F 65% 30.02 in 10.0 mi East 3.5 mph - N/A   Clear
10:15 PM 35.6 °F 32.8 °F 21.2 °F 56% 30.04 in 10.0 mi NW 3.5 mph - N/A   Scattered Clouds
10:35 PM 37.4 °F 32.1 °F 19.4 °F 48% 30.06 in 10.0 mi NW 6.9 mph - N/A   Mostly Cloudy
10:55 PM 37.4 °F 30.3 °F 21.2 °F 52% 30.06 in 10.0 mi NNW 10.4 mph - N/A   Mostly Cloudy
11:15 PM 37.4 °F - 21.2 °F 52% 30.05 in 10.0 mi Calm Calm - N/A   Mostly Cloudy
11:35 PM 37.4 °F 32.8 °F 21.2 °F 52% 30.05 in 10.0 mi North 5.8 mph - N/A   Mostly Cloudy
11:55 PM 37.4 °F 32.8 °F 21.2 °F 52% 30.05 in 10.0 mi North 5.8 mph - N/A   Scattered Clouds